Location: Ch?enovice
(49.7164°N, 15.2160°E)
Time: 05:06:42
(UTC+00:00)

Cosmos 2181 Rocket - Pass Details

Date: 23 May 2024
Orbit: 951 x 1014 km, 82.9° (Epoch: 15 June)

Event Time Altitude Azimuth Distance (km) Brightness Sun altitude
Rises 01:48:33 0° 348° (NNW) 3,746 7.6 -9.9°
Reaches altitude 10° 01:51:08 10° 345° (NNW) 2,784 6.9 -9.7°
Maximum altitude 01:57:25 63° 267° (W) 1,099 4.1 -9.0°
Drops below altitude 10° 02:03:35 10° 187° (S) 2,723 5.9 -8.3°
Enters shadow 02:05:56 - 185° (S) 3,601 6.5 -8.0°
